Hourly Weather Roundup
Issued by NWS Central Illinois

Home | Current Version | Previous Version | Text Only | Print | Product List | Glossary On
Versions: 1 2 3 4 5 6 7 8 9 10 11 12 13 14 15 16 17 18 19 20 21 22 23 24 25 26 27 28 29 30 31 32 33 34 35 36 37 38 39 40 41 42 43 44 45 46 47 48 49 50
000
NZUS43 KILX 212010
HWRILX

Area Weather Roundup
National Weather Service Lincoln IL
200 PM CST TUE NOV 21 2017

NOTE:  "FAIR" indicates few or no clouds below 12,000 feet, with
       no sigificant weather and/or obstructions to visibility.


CITY           SKY/WX    TMP DP  RH WIND       PRES   REMARKS
Bloomington    CLOUDY    39  26  59 NW12      29.97R WCI  32
Champaign      PTSUNNY   46  31  55 N15       29.94R
Danville       CLOUDY    47  32  57 W13       29.91R
Decatur        CLOUDY    47  30  51 N15G23    29.95R
Effingham      CLOUDY    53  36  51 W6        29.94S
Flora          PTSUNNY   55  36  49 W9        29.96R
Galesburg      CLOUDY    36  24  61 NW17G23   30.03R WCI  26
Jacksonville   CLOUDY    43  24  48 NW14      30.02R
Lacon          CLOUDY    36  22  58 W12G22    29.99R WCI  27
Lawrenceville  CLOUDY    56  36  47 SW10      29.95R
Litchfield     PTSUNNY   49  32  53 N15       29.99R
$$


CITY           SKY/WX    TMP DP  RH WIND       PRES   REMARKS
Lincoln        CLOUDY    42  25  50 NW9       29.98R
Macomb         CLOUDY    37  22  54 NW23G30   30.05R WCI  26
Mattoon        CLOUDY    52  36  54 NW10      29.92S
Mt Carmel AP   PTSUNNY   55  35  46 W13       29.95R
Olney-Noble AP MOSUNNY   53  31  42 W10       29.96R
Paris AP       CLOUDY    51  39  63 W10       29.93R
Peoria         CLOUDY    39  21  48 NW9G23    29.99R WCI  33
Pontiac        CLOUDY    38  24  57 W18       29.97R WCI  29
Rantoul        CLOUDY    43  26  49 NW17G23   29.94R
Robinson       CLOUDY    52  35  51 W10       29.95S
Springfield    CLOUDY    45  25  45 NW17G29   30.00R
Taylorville    CLOUDY    48  28  45 NW17      29.98R
$$

...REGIONAL REPORTS...


CITY           SKY/WX    TMP DP  RH WIND       PRES   REMARKS
Chicago O`Hare CLOUDY    39  20  46 NW18      29.88R WCI  30
Kankakee       HVY RAIN  36  29  76 NW8       29.93R WCI  29
Moline         SUNNY     36  19  50 NW25G32   30.01R WCI  24
Mount Sterling CLOUDY    41  22  46 NW20G25   30.02R WCI  32
Mount Vernon   CLOUDY    55  36  48 W6        29.97R
Pittsfield     CLOUDY    45  25  45 NW15      30.04R
Quincy         CLOUDY    43  21  41 NW21G29   30.03R WCI  34
Rockford       CLOUDY    36  18  48 NW20G29   29.96R WCI  25
$$


CITY           SKY/WX    TMP DP  RH WIND       PRES   REMARKS
Burlington     MOSUNNY   38  22  52 NW16G26   30.05R WCI  29
Cedar Rapids   SUNNY     33  16  49 NW21      30.06R WCI  21
Des Moines     SUNNY     35  15  44 NW24G35   30.17R WCI  23
Kirksville     PTSUNNY   41  17  38 N15G24    30.09R WCI  33
Ottumwa        SUNNY     35  18  49 NW25G32   30.12R WCI  23
St Louis       CLOUDY    55  32  41 NW12      29.99R
$$


CITY           SKY/WX    TMP DP  RH WIND       PRES   REMARKS
Terre Haute    CLOUDY    51  35  54 W13       29.93R
Evansville     MOSUNNY   57  36  45 SW14      29.97R
Indianapolis   CLOUDY    51  34  52 SW16      29.91R
Lafayette      CLOUDY    48  35  60 W12       29.92R
Madison        PTSUNNY   34  15  46 N16G25    29.94R WCI  24
Milwaukee      CLOUDY    35  18  49 NW18G25   29.90R WCI  24
$$






USA.gov is the U.S. government's official web portal to all federal, state and local government web resources and services.